Wind_Speed
4 4 4 5 6 6 6 6 5 5 4 5 5 5 5 5 5 5 5 5 5 5 6 6 6 5 5 5 5 4 4 5 5 4 5 6 6 6 6 6 6 7 7
5 5 5 5 6 7 6 6 6 6 6 6 6 6 7 6 6 6 6 6 6 6 6 6 6 6 6 6 5 5 6 5 5 5 5 5 6 6 7 7 7 7 8
5 5 6 6 7 6 6 6 6 6 6 7 7 8 8 7 7 7 7 7 7 7 7 7 7 7 7 7 6 6 6 6 6 6 6 6 7 7 7 7 8 8 8
6 6 6 6 7 6 6 6 6 6 7 7 8 8 8 8 8 8 8 8 8 8 7 7 7 7 7 7 6 6 6 6 7 6 6 7 7 8 7 7 8 8 9
7 7 7 7 7 7 7 6 6 7 7 7 8 9 9 9 9 8 8 8 8 8 7 7 7 7 7 6 6 6 7 7 7 6 7 7 8 8 8 8 8 8 9
7 7 8 7 7 8 8 7 7 7 7 7 8 8 9 8 8 9 8 9 8 8 7 7 7 7 6 7 7 7 7 7 7 7 7 8 8 8 8 8 8 8 8
7 7 8 8 8 8 8 7 7 7 8 8 8 8 8 8 8 9 9 9 9 9 8 7 7 7 7 7 7 7 8 7 7 7 7 8 8 8 8 8 7 7 7
7 8 8 8 8 8 8 8 8 9 8 8 8 7 7 8 9 9 9 8 8 8 7 7 6 7 7 7 7 7 7 7 7 7 7 7 7 7 7 7 7 7 7
8 8 8 9 9 9 9 9 9 9 9 8 8 8 8 9 9 9 9 8 8 8 7 7 7 7 7 7 7 7 7 7 7 7 8 7 7 7 7 7 7 8 7
8 8 8 9 9 9 10 10 9 9 9 9 9 9 10 10 10 9 9 9 8 8 7 7 7 7 7 7 8 8 7 7 7 7 8 8 7 7 8 8 8 8 8
9 9 9 9 9 10 10 11 11 11 10 10 10 10 10 10 10 9 9 9 8 8 8 8 7 7 8 8 8 8 8 7 7 7 7 8 8 8 8 8 8 8 8
9 9 10 10 10 10 11 11 11 11 11 11 11 11 11 10 10 10 9 9 9 9 9 8 8 8 9 9 8 8 7 8 8 8 7 7 8 9 8 8 9 9 8
9 10 10 11 11 11 11 11 11 11 11 12 12 12 11 11 10 10 10 9 9 9 8 9 9 9 9 9 8 7 7 7 8 8 8 7 7 7 8 9 9 9 8
10 10 10 10 11 11 11 11 11 11 12 12 12 12 11 11 11 10 10 9 9 9 8 8 8 8 8 8 8 7 7 6 6 6 7 7 7 7 7 7 8 8 8
11 11 11 11 10 11 11 11 11 12 12 12 11 11 11 11 11 11 10 9 9 9 9 8 8 7 8 8 8 7 7 7 7 7 7 7 8 8 8 9 8 8 9
11 11 11 11 11 11 11 12 12 11 11 11 11 11 11 10 10 10 10 10 10 9 9 9 8 8 8 8 8 8 8 8 8 8 9 9 9 9 9 9 9 9 9
11 11 11 11 11 11 11 11 11 11 11 10 10 10 10 10 10 10 10 10 10 10 10 9 9 9 9 9 9 8 8 8 8 9 9 9 9 9 9 9 9 9 8
12 11 11 11 11 11 11 11 11 11 10 10 9 9 9 9 9 10 10 10 11 10 11 11 10 10 9 9 9 9 9 9 9 9 9 9 9 9 9 9 9 9 9
11 12 11 11 11 11 11 11 11 11 10 10 10 9 9 9 9 9 9 10 10 10 11 10 10 10 10 9 9 10 9 9 9 10 10 9 9 10 10 10 10 9 10
11 11 11 11 10 10 11 11 11 11 11 10 10 10 9 9 9 10 10 10 10 10 10 10 11 11 11 11 10 10 9 10 10 10 10 10 9 10 10 10 10 10 11
11 11 10 10 10 10 11 11 11 11 12 12 11 10 10 10 10 10 10 10 10 11 11 11 12 12 12 11 11 10 10 10 11 10 11 10 10 10 10 10 11 11 11
12 12 11 10 10 11 11 11 11 12 12 12 12 12 11 10 10 10 11 11 11 11 12 11 11 12 12 12 11 11 10 10 10 10 10 10 10 10 10 10 11 11 11
12 12 11 11 11 11 10 10 11 12 13 13 13 12 12 11 11 11 11 11 11 11 11 11 11 11 12 12 12 12 12 11 11 10 10 10 10 11 11 11 10 11 11
12 11 12 12 12 12 11 11 12 12 13 13 13 12 12 12 11 11 11 11 11 11 10 10 11 11 12 12 12 12 12 12 12 11 11 11 11 11 11 11 11 11 12
12 12 13 13 13 13 12 12 12 12 13 13 12 12 12 12 12 12 12 12 11 11 11 10 11 11 11 11 11 12 12 12 12 12 12 11 11 11 11 11 11 11 11
13 13 13 13 14 14 14 13 13 13 13 13 13 13 13 13 13 12 12 13 12 12 11 11 11 12 12 12 12 12 12 12 12 12 12 12 12 12 11 12 12 11 11
Wind_Direction
309 314 325 328 329 325 316 303 295 291 288 285 285 282 287 290 291 292 293 285 281 277 277 277 278 274 268 273 274 276 270 257 255 261 262 254 249 250 252 255 254 245 239
291 299 310 316 321 320 313 303 291 284 283 282 283 284 283 284 287 287 288 287 283 281 277 275 274 269 267 273 275 274 271 264 260 266 265 251 249 251 253 254 250 247 245
292 297 302 307 313 316 311 300 292 282 280 282 282 281 280 280 284 287 288 288 286 284 277 271 271 272 269 271 273 270 267 264 264 268 264 257 259 262 262 258 254 254 253
289 295 300 305 306 308 305 301 293 282 279 284 282 278 277 279 282 285 287 285 285 285 276 270 270 271 269 270 271 268 264 261 264 268 265 263 262 268 268 264 258 259 259
285 291 296 300 301 301 302 297 290 286 286 286 286 281 275 276 277 281 284 285 283 282 277 267 267 267 268 268 269 266 263 260 263 266 266 266 265 270 268 266 263 263 263
285 288 291 295 298 296 296 295 294 292 288 289 291 287 276 274 274 279 283 282 281 280 278 268 263 263 265 266 267 268 267 263 263 265 266 266 268 271 267 262 262 262 266
286 285 286 289 292 293 291 289 291 288 286 289 292 290 279 274 275 279 283 282 277 276 273 269 264 260 265 269 269 270 270 269 265 264 265 267 267 267 264 262 265 266 271
287 286 286 284 286 288 288 287 286 286 286 289 292 291 284 277 277 279 281 282 280 277 271 266 266 264 267 269 269 271 270 265 266 263 265 266 268 267 263 263 270 272 273
286 285 285 283 283 285 286 285 284 284 283 284 287 288 282 279 278 277 280 280 277 274 268 263 262 264 266 267 268 269 269 264 264 260 266 267 266 267 267 266 267 271 271
289 285 282 283 284 285 287 288 284 283 282 282 283 283 283 281 280 280 282 279 276 272 270 268 263 261 266 266 262 263 268 267 264 265 264 263 265 267 269 267 270 270 268
288 285 283 282 285 288 289 287 285 285 285 285 286 285 283 282 283 281 281 276 273 271 270 268 264 261 264 264 263 265 266 267 261 263 265 262 265 269 271 270 273 270 266
285 285 286 285 287 287 289 290 289 288 288 289 288 286 287 285 283 280 278 274 271 268 263 258 256 257 259 260 259 262 266 269 266 263 264 267 268 268 267 270 272 271 269
279 280 281 284 288 289 288 289 289 287 288 291 290 287 286 283 281 276 273 272 268 264 261 259 257 257 259 261 263 266 268 271 269 266 267 266 264 265 269 269 270 266 265
278 279 278 278 281 285 287 289 289 287 288 290 290 288 285 281 277 273 272 269 266 264 261 260 261 263 267 273 273 277 272 271 270 265 266 265 262 266 273 273 270 267 266
280 278 279 284 281 283 288 290 291 289 287 288 290 289 286 279 274 272 269 264 261 260 260 261 263 263 265 269 271 273 267 265 266 269 271 269 266 268 274 275 270 272 271
281 280 281 286 283 285 288 290 288 288 290 291 289 285 284 279 274 271 266 259 256 255 256 257 256 255 260 266 268 268 269 268 266 266 267 270 269 269 272 275 270 271 272
278 276 280 284 282 279 281 285 288 287 289 292 292 286 282 276 272 268 265 257 256 254 254 253 254 255 259 265 266 267 270 271 270 267 267 271 269 268 269 273 274 272 274
278 277 280 283 283 280 280 284 289 288 289 292 295 294 285 275 268 266 265 261 259 255 253 253 255 258 261 263 265 267 268 270 273 271 269 269 269 270 271 273 275 273 274
278 276 277 286 284 282 282 283 284 283 287 288 288 291 287 278 270 265 266 267 261 255 253 254 256 258 261 264 266 267 269 269 272 273 272 271 272 269 272 274 278 276 277
281 279 278 285 287 289 286 284 282 281 283 282 284 283 283 279 272 268 268 267 263 258 256 258 259 261 263 264 265 265 267 268 268 270 273 275 275 273 273 274 276 275 273
281 278 279 282 285 287 287 287 285 282 280 278 281 279 276 276 271 267 266 265 263 262 260 259 262 262 263 265 266 265 265 268 267 268 271 275 277 277 279 277 276 273 271
279 277 277 279 282 283 283 283 282 282 280 279 278 273 270 272 270 268 267 265 263 264 262 263 264 263 262 265 266 265 265 266 267 269 273 275 276 278 279 279 276 274 273
280 279 275 274 278 280 283 284 281 281 280 280 276 272 268 268 264 266 269 266 263 263 262 262 264 263 263 265 265 264 265 266 266 268 270 273 277 279 280 281 279 276 275
282 283 280 278 278 279 283 286 279 279 280 279 277 273 268 264 262 262 263 263 265 264 263 265 267 266 266 265 264 264 264 264 265 266 268 273 276 277 279 281 280 277 274
287 286 283 283 283 280 279 282 281 280 281 279 277 273 270 264 262 261 263 262 262 262 261 264 267 267 266 265 265 265 265 263 264 267 267 270 273 275 278 278 279 279 278
285 285 285 283 281 279 277 278 277 277 279 279 277 274 271 268 265 263 263 262 258 257 260 263 265 267 266 265 265 265 264 262 262 266 267 267 269 273 275 279 281 280 282
Height
5880 5879 5879 5878 5877 5876 5874 5873 5873 5874 5874 5874 5874 5874 5873 5873 5872 5872 5872 5871 5871 5871 5870 5870 5869 5869 5868 5868 5867 5867 5867 5866 5866 5866 5866 5866 5866 5866 5866 5866 5866 5866 5866
5879 5879 5878 5877 5876 5874 5872 5871 5871 5872 5872 5873 5873 5873 5872 5872 5872 5871 5871 5870 5870 5870 5869 5869 5868 5867 5867 5867 5867 5866 5866 5866 5865 5865 5865 5865 5865 5865 5865 5865 5865 5865 5864
5878 5878 5877 5876 5875 5873 5871 5869 5869 5870 5871 5871 5871 5871 5871 5871 5870 5870 5870 5869 5869 5868 5868 5867 5867 5866 5866 5866 5865 5865 5865 5864 5864 5864 5864 5864 5864 5864 5864 5863 5863 5863 5863
5877 5877 5876 5875 5874 5872 5871 5869 5869 5869 5869 5870 5870 5869 5869 5869 5869 5869 5868 5868 5867 5867 5866 5866 5865 5865 5865 5864 5864 5864 5863 5863 5863 5863 5863 5863 5863 5862 5862 5862 5862 5861 5861
5876 5875 5875 5874 5873 5872 5871 5869 5869 5868 5869 5868 5867 5867 5866 5867 5867 5867 5867 5866 5866 5865 5864 5864 5864 5863 5863 5863 5863 5862 5862 5862 5862 5862 5862 5862 5861 5861 5860 5860 5860 5859 5858
5874 5874 5873 5873 5872 5871 5871 5870 5869 5868 5868 5867 5865 5863 5862 5864 5865 5865 5865 5864 5864 5863 5863 5862 5862 5862 5862 5862 5861 5861 5861 5861 5861 5861 5861 5860 5860 5860 5859 5859 5858 5857 5856
5873 5872 5872 5871 5871 5870 5870 5869 5868 5868 5867 5866 5863 5861 5860 5861 5863 5863 5863 5862 5862 5861 5861 5861 5861 5861 5861 5860 5860 5860 5860 5859 5859 5859 5859 5859 5858 5858 5858 5857 5856 5855 5854
5871 5870 5870 5870 5869 5869 5868 5867 5867 5866 5865 5864 5863 5861 5860 5860 5861 5861 5861 5861 5860 5860 5859 5860 5859 5859 5859 5859 5859 5858 5858 5858 5858 5857 5857 5857 5857 5857 5856 5856 5855 5854 5853
5869 5868 5868 5868 5867 5867 5866 5866 5865 5865 5864 5863 5862 5861 5860 5860 5859 5859 5859 5859 5859 5858 5858 5858 5858 5858 5858 5857 5857 5857 5856 5856 5856 5856 5856 5855 5855 5855 5854 5854 5853 5853 5852
5867 5867 5866 5866 5865 5865 5864 5864 5863 5862 5862 5861 5860 5859 5859 5858 5858 5857 5857 5857 5856 5856 5856 5856 5856 5856 5856 5856 5855 5855 5855 5854 5854 5854 5854 5854 5853 5853 5853 5852 5852 5851 5850
5865 5865 5864 5864 5863 5863 5862 5861 5861 5860 5860 5859 5858 5857 5857 5856 5856 5855 5855 5854 5854 5854 5854 5854 5854 5854 5854 5854 5854 5853 5853 5853 5852 5852 5852 5852 5852 5851 5851 5850 5850 5849 5849
5864 5863 5862 5862 5861 5861 5860 5859 5858 5858 5857 5856 5855 5855 5854 5854 5853 5853 5853 5852 5852 5852 5852 5852 5852 5852 5852 5852 5852 5851 5851 5851 5851 5850 5850 5850 5850 5849 5849 5848 5848 5847 5847
5862 5861 5860 5859 5859 5858 5858 5857 5856 5855 5855 5854 5853 5852 5851 5851 5851 5851 5850 5850 5850 5850 5850 5850 5850 5850 5850 5850 5850 5849 5849 5849 5849 5849 5848 5848 5848 5847 5847 5847 5846 5846 5845
5859 5858 5858 5857 5856 5856 5855 5854 5854 5853 5852 5851 5850 5849 5848 5848 5848 5848 5848 5848 5847 5848 5848 5848 5848 5848 5848 5847 5847 5847 5847 5847 5847 5847 5847 5846 5846 5846 5845 5845 5844 5844 5843
5856 5855 5855 5855 5854 5853 5852 5852 5851 5850 5849 5848 5847 5846 5846 5845 5845 5845 5845 5845 5845 5845 5846 5846 5846 5846 5845 5845 5845 5845 5845 5845 5845 5845 5845 5844 5844 5844 5843 5842 5842 5842 5841
5853 5853 5852 5852 5851 5850 5850 5849 5848 5847 5846 5845 5844 5843 5843 5842 5842 5842 5842 5842 5842 5843 5843 5843 5844 5844 5843 5843 5843 5843 5843 5843 5843 5843 5843 5842 5842 5842 5841 5841 5840 5840 5839
5850 5850 5849 5849 5848 5848 5847 5846 5845 5844 5843 5843 5842 5841 5840 5839 5839 5839 5839 5839 5839 5840 5840 5841 5841 5841 5841 5841 5841 5841 5841 5841 5841 5841 5840 5840 5840 5839 5839 5838 5838 5837 5837
5847 5847 5846 5846 5845 5844 5843 5843 5842 5841 5840 5839 5839 5838 5837 5836 5836 5836 5836 5836 5836 5837 5837 5838 5838 5839 5839 5839 5839 5839 5839 5839 5839 5838 5838 5838 5838 5837 5837 5836 5835 5835 5834
5844 5844 5843 5843 5842 5841 5840 5839 5839 5838 5837 5836 5836 5835 5834 5833 5833 5833 5833 5833 5833 5834 5835 5835 5836 5836 5837 5837 5837 5837 5837 5836 5836 5836 5836 5835 5835 5835 5834 5834 5833 5832 5832
5841 5841 5840 5840 5839 5838 5837 5836 5835 5835 5834 5833 5833 5832 5831 5831 5830 5830 5830 5830 5831 5832 5832 5833 5833 5833 5834 5834 5834 5834 5834 5834 5834 5833 5833 5833 5833 5832 5832 5831 5830 5830 5829
5838 5838 5837 5837 5836 5835 5834 5833 5833 5832 5831 5830 5829 5829 5828 5828 5827 5827 5827 5828 5828 5829 5829 5830 5830 5831 5831 5831 5832 5832 5832 5831 5831 5831 5831 5830 5830 5829 5829 5828 5828 5827 5826
5835 5834 5834 5833 5833 5832 5831 5830 5829 5829 5827 5827 5826 5825 5825 5824 5824 5824 5824 5825 5825 5825 5826 5826 5827 5827 5828 5828 5829 5829 5829 5829 5828 5828 5828 5827 5827 5826 5826 5825 5825 5824 5823
5832 5831 5830 5830 5829 5828 5827 5826 5826 5825 5824 5823 5822 5822 5821 5821 5821 5821 5821 5821 5822 5822 5822 5823 5824 5824 5825 5825 5825 5826 5825 5825 5825 5825 5825 5825 5824 5823 5823 5822 5822 5821 5820
5829 5828 5827 5826 5825 5825 5824 5823 5822 5822 5821 5819 5819 5818 5818 5818 5818 5818 5818 5818 5819 5819 5820 5820 5821 5821 5822 5822 5822 5822 5822 5822 5822 5823 5822 5821 5821 5820 5820 5819 5818 5817 5817
5825 5824 5823 5822 5822 5821 5820 5820 5820 5819 5817 5816 5815 5815 5815 5814 5815 5815 5815 5815 5816 5816 5817 5817 5818 5818 5818 5818 5819 5819 5819 5819 5819 5819 5819 5819 5818 5818 5817 5816 5815 5814 5814
5821 5820 5819 5819 5818 5818 5817 5817 5816 5815 5814 5813 5812 5812 5811 5811 5811 5811 5812 5812 5812 5813 5814 5814 5814 5815 5815 5815 5815 5815 5815 5815 5816 5816 5815 5815 5815 5815 5814 5813 5812 5811 5810